Wind_Speed
70 70 71 71 70 70 70 70 71 72 72 72 71 71 71 72 72 72 71 71 71 71 71 71 71 72 73 74 74 75 76 76 77 77 77 78 80 81 82 83 83 84 84 84 83 82 79 78 75 72 71 71 71 72 73 73 73 71 68 66 65 64 65 62 59 59 58 55 53 52 50 49 47 45 43 43 42 41 42 45 44 41 40 41 41
72 72 72 72 71 71 71 71 72 72 72 73 73 73 73 74 74 74 73 73 73 73 72 72 72 73 73 74 75 76 76 77 78 78 78 79 80 81 83 84 84 85 86 86 86 86 83 82 80 78 75 73 73 74 75 74 74 72 70 68 67 67 67 66 64 63 61 59 57 54 52 52 51 48 47 47 46 45 46 48 46 44 44 44 44
72 72 72 72 72 72 72 73 73 73 73 73 74 75 75 75 75 75 75 75 75 75 74 74 74 74 75 75 76 76 77 78 78 79 79 80 81 82 83 84 85 86 87 87 88 88 88 86 84 83 81 77 76 77 77 76 74 73 72 69 68 68 68 68 68 67 65 63 61 58 56 57 56 52 50 50 49 48 50 51 49 48 48 47 47
72 72 72 72 72 73 73 73 73 73 73 74 74 75 76 76 76 76 77 77 77 77 77 76 76 76 76 77 77 78 78 79 79 80 80 81 82 83 83 84 85 87 88 89 90 90 90 89 88 88 86 83 81 80 79 79 77 76 75 71 68 67 68 69 69 69 70 66 63 60 58 59 59 55 52 52 51 52 54 55 53 52 53 52 51
74 73 73 73 73 74 74 74 74 74 74 74 75 75 76 77 77 77 78 78 78 79 78 78 78 77 78 78 79 79 80 80 80 81 82 82 83 84 85 85 86 87 88 89 91 91 91 91 92 92 91 89 87 85 83 82 82 81 80 77 73 69 68 68 68 69 71 69 65 62 57 58 61 58 55 55 55 56 58 58 58 58 57 56 55
77 76 75 76 76 75 75 75 76 76 76 76 76 76 77 77 78 79 79 80 80 80 80 80 79 79 79 79 80 81 81 82 82 82 83 84 85 86 87 87 88 88 89 90 91 92 92 92 93 94 94 93 92 90 89 87 86 86 84 82 81 77 73 70 69 69 71 71 69 64 58 59 62 60 58 59 59 59 60 60 61 61 60 60 60
80 80 79 79 79 78 78 78 78 78 78 78 78 78 78 79 79 80 81 82 82 82 82 82 81 81 81 81 81 81 82 83 83 84 85 85 86 87 88 90 90 90 90 91 91 92 93 93 94 95 95 95 95 95 94 92 91 90 87 86 86 85 81 77 72 70 71 73 73 69 63 63 64 62 62 62 61 60 61 62 62 62 63 63 63
83 83 82 82 82 82 82 81 81 81 81 80 80 80 81 81 81 82 82 83 83 83 84 84 83 83 84 84 83 83 83 84 84 85 86 87 88 88 89 90 91 92 92 92 92 93 93 94 94 95 95 96 97 98 97 97 96 94 92 90 89 87 85 83 79 75 73 75 76 74 69 66 66 66 65 64 63 63 63 64 65 65 65 65 64
87 86 86 85 85 84 84 84 83 83 83 83 83 83 83 83 83 84 84 84 85 85 85 85 85 85 86 86 85 85 85 85 86 87 88 89 89 89 90 90 91 92 93 93 94 94 94 94 94 95 95 96 97 99 99 99 99 98 97 96 93 90 88 88 86 81 78 78 78 76 71 68 68 68 65 64 66 67 67 67 67 67 66 66 66
89 88 88 88 87 87 86 86 85 85 84 84 85 85 85 86 86 86 86 86 87 87 87 87 87 87 88 88 87 87 87 87 88 90 90 91 91 91 91 91 91 91 92 93 94 95 95 95 95 95 96 97 97 98 99 100 100 100 100 100 98 95 93 91 90 86 83 83 82 78 73 71 72 71 69 70 71 72 71 70 69 69 68 68 68
90 90 90 90 90 89 88 87 87 86 86 86 86 87 87 87 88 88 88 88 89 89 89 89 89 89 89 89 89 89 89 90 91 92 92 93 93 93 93 92 92 92 92 92 93 94 96 96 96 95 95 97 98 98 99 99 100 100 102 102 101 99 97 95 93 90 88 87 85 81 77 77 77 76 76 77 78 77 75 73 72 71 70 70 70
92 92 92 92 91 91 90 90 89 88 88 88 88 88 88 89 89 89 89 90 90 91 91 91 91 91 91 91 91 91 91 92 93 94 94 95 95 95 95 94 93 93 92 92 93 94 95 96 96 95 94 95 97 98 99 99 99 100 102 103 103 101 100 98 96 94 93 90 89 86 81 79 80 80 80 80 80 79 77 75 73 73 72 73 72
92 92 92 92 92 92 92 91 91 91 90 90 90 90 90 90 90 90 90 91 91 92 92 92 92 92 92 92 92 93 93 94 95 96 96 97 97 97 96 96 95 94 94 94 94 94 95 95 96 95 95 95 96 97 98 99 99 100 101 103 103 102 101 100 99 99 98 96 94 91 85 81 82 84 84 82 80 78 76 75 75 74 74 74 73
89 89 90 90 90 90 90 90 90 90 91 91 91 91 91 91 91 91 91 92 92 93 93 93 93 93 93 93 94 94 95 96 97 98 98 99 99 98 97 96 96 95 95 95 95 96 96 96 96 96 96 96 96 96 96 97 98 100 101 102 102 101 101 101 101 101 100 98 97 95 90 85 86 88 88 85 80 76 75 75 74 74 74 74 73
84 84 85 85 85 85 85 86 86 87 87 88 89 89 90 90 91 91 91 92 92 93 93 94 94 94 94 95 95 95 96 98 99 99 100 101 101 100 98 97 96 96 96 96 97 97 98 98 98 97 97 97 98 97 96 96 97 98 100 101 102 102 101 101 101 101 100 98 97 96 94 90 91 92 91 87 83 80 79 77 74 74 75 75 74
78 78 78 78 78 78 79 79 80 81 82 83 84 85 86 86 87 88 88 89 90 91 92 92 93 94 95 95 96 96 98 99 100 100 101 102 102 101 100 98 97 96 96 97 97 98 98 99 99 99 98 98 98 98 98 98 98 97 98 99 100 101 101 101 101 101 100 99 98 98 96 93 93 94 93 89 86 84 83 80 77 76 76 76 75
72 72 72 72 72 72 73 74 75 75 76 77 77 78 78 79 80 81 82 83 85 86 87 88 90 91 92 94 95 95 97 99 100 100 102 102 102 101 100 98 97 96 96 97 98 98 99 100 100 100 99 99 99 99 99 100 100 99 98 98 98 99 99 100 101 101 100 100 100 99 97 95 94 94 94 92 89 87 84 81 79 78 77 77 77
69 68 68 68 68 68 68 69 69 69 69 69 69 69 69 70 71 72 73 75 77 78 80 81 83 85 87 89 90 91 93 95 97 97 98 99 100 100 98 96 95 94 95 97 99 99 100 101 101 101 101 100 100 101 100 100 99 99 99 99 98 98 97 97 98 99 100 100 100 99 98 96 95 94 94 92 89 87 86 84 83 82 80 79 78
65 64 64 64 64 64 64 64 64 64 63 62 62 61 62 62 63 64 65 66 67 69 71 72 74 76 79 81 83 85 86 88 90 91 92 94 95 94 93 91 89 90 92 95 97 99 100 101 102 102 102 103 103 103 102 100 99 99 100 100 99 98 97 97 97 98 99 100 100 100 100 98 96 95 94 92 90 88 86 84 83 81 80 80 79
60 60 61 61 61 61 61 60 60 59 58 57 57 57 57 58 58 59 59 59 60 61 63 65 66 69 71 73 74 76 78 79 81 83 84 86 87 86 84 83 83 85 87 90 93 95 96 98 99 101 102 103 104 104 103 101 101 100 100 100 100 98 97 98 99 99 99 100 100 101 101 100 98 96 95 93 91 88 86 83 81 79 78 79 79
56 58 59 59 59 58 58 57 56 55 54 54 54 54 54 54 54 54 54 54 55 56 58 59 60 61 63 64 65 67 69 70 72 75 76 77 77 77 75 75 76 79 81 84 87 89 90 92 94 97 99 101 103 104 103 102 102 102 101 100 99 98 99 100 101 100 99 99 100 100 101 100 99 98 96 94 91 89 87 85 84 82 80 78 78
54 57 58 58 57 56 55 55 54 53 53 53 53 52 51 50 50 50 50 51 52 52 53 52 52 54 55 56 56 58 60 62 64 67 67 68 68 67 67 68 70 72 74 77 79 81 83 85 88 91 94 96 99 100 101 101 102 102 101 99 98 98 100 102 102 100 98 98 99 100 100 99 98 98 96 94 92 90 88 87 86 84 81 79 77
54 57 57 56 55 54 53 53 52 52 51 51 50 48 47 46 46 46 46 47 48 47 47 46 46 47 48 48 48 50 53 54 57 59 59 59 60 60 60 62 64 66 68 70 73 75 77 79 82 86 88 90 93 94 95 97 99 99 99 97 97 99 101 102 101 99 98 97 98 98 98 98 97 97 96 94 93 91 89 88 86 84 82 80 78
55 56 56 54 53 53 52 51 50 49 48 47 45 44 43 43 43 43 43 43 43 42 42 41 41 41 42 42 42 44 46 48 49 51 51 51 52 53 54 57 59 61 63 65 68 70 71 73 77 80 82 83 85 87 88 90 93 94 93 93 95 97 99 99 98 98 97 97 96 96 96 96 96 95 94 94 93 90 88 87 85 83 82 80 78
54 55 53 52 52 51 50 48 46 45 44 43 42 41 41 41 40 39 38 37 38 38 37 36 36 37 37 38 38 39 41 42 43 44 44 44 45 46 48 51 53 56 58 61 63 64 66 68 71 73 73 75 76 78 80 83 85 86 86 87 88 91 93 94 94 95 96 96 95 94 94 93 94 95 94 93 92 89 87 85 84 83 82 80 79
54 53 51 50 49 49 47 45 43 42 41 40 40 40 39 37 36 34 32 33 34 35 34 33 33 34 34 35 35 36 37 38 39 39 39 39 40 42 44 46 48 50 52 54 56 58 59 61 63 65 66 67 69 71 74 77 78 78 77 79 80 82 85 87 89 90 92 93 93 92 91 91 92 93 93 92 89 87 84 83 83 83 82 81 80
52 51 48 47 47 45 44 42 40 39 39 38 38 37 35 33 31 29 29 31 32 32 31 31 31 31 32 33 33 34 36 37 37 37 37 37 38 40 41 43 44 45 47 49 50 51 53 54 56 58 60 62 64 66 68 69 69 68 69 71 73 75 78 80 82 84 86 88 89 90 89 88 88 89 90 89 88 86 83 82 83 84 83 81 79
50 48 46 45 44 43 41 39 38 37 37 36 35 33 31 29 27 26 28 30 30 30 29 29 29 30 31 32 32 33 34 35 35 35 35 35 37 38 39 40 41 42 45 47 48 49 51 52 53 55 57 58 59 60 61 61 60 61 62 65 67 69 71 73 75 77 79 82 84 86 86 85 84 85 87 88 87 85 83 82 82 83 82 80 77
47 44 43 43 42 40 39 37 36 35 34 33 32 30 28 26 25 25 27 28 28 27 27 28 29 29 30 31 31 31 32 33 34 34 34 34 34 36 37 38 39 41 44 45 46 47 49 50 52 53 55 55 55 55 56 56 56 57 59 62 63 65 66 67 69 71 73 76 79 81 81 80 80 82 85 86 85 84 82 82 82 83 81 78 75
44 42 41 41 40 38 36 35 34 33 32 30 29 27 26 24 23 25 27 27 26 26 26 27 28 29 29 30 30 30 32 33 34 35 35 35 35 35 36 37 37 39 41 42 43 45 47 49 50 51 52 52 52 53 53 54 55 57 59 61 62 63 63 63 65 67 69 73 75 77 77 77 78 80 83 84 84 82 82 82 82 82 79 76 74
41 40 40 39 38 37 34 32 31 30 29 28 27 26 25 23 23 25 26 25 24 25 26 27 28 29 29 30 30 31 32 33 34 35 35 36 36 36 36 37 37 38 39 40 42 43 45 47 48 49 50 50 50 51 52 53 55 57 59 60 61 61 61 61 62 64 67 69 72 73 75 76 77 77 79 81 82 81 82 82 81 80 77 75 74
39 38 38 37 36 35 32 30 29 28 28 27 26 25 24 22 22 24 24 23 24 25 26 27 28 29 29 29 29 30 30 30 32 33 33 34 34 34 34 35 35 35 37 39 42 44 45 46 47 47 48 48 48 50 51 53 55 57 57 57 58 59 59 60 61 63 65 67 69 70 72 73 73 74 76 79 80 81 81 81 79 78 76 74 73
38 37 36 36 35 32 29 28 27 27 26 26 25 24 22 21 22 24 23 23 24 25 26 27 27 28 29 28 28 28 29 29 31 33 34 35 35 34 34 34 34 35 36 38 41 44 45 47 47 47 46 45 46 47 49 52 54 55 55 55 57 58 58 58 60 61 63 64 66 68 69 70 71 72 74 77 79 80 80 79 78 75 73 71 70
36 35 34 34 33 29 27 26 26 26 25 25 25 24 22 21 22 23 22 22 24 24 25 25 26 26 27 27 27 28 29 30 32 34 37 37 37 36 36 36 36 37 38 39 41 43 46 47 48 48 46 45 44 46 48 51 52 52 52 53 55 56 56 56 58 60 62 63 65 66 68 69 70 71 73 76 78 78 77 75 73 69 67 67 68
34 33 33 33 30 27 25 25 25 25 25 25 24 23 22 21 22 23 22 22 22 22 22 23 23 24 25 25 26 27 29 30 32 35 38 39 40 40 39 39 39 39 40 40 41 44 46 47 48 48 47 46 46 47 48 48 49 49 50 51 53 53 54 55 57 59 61 63 65 67 68 68 68 69 72 74 75 74 72 68 64 61 62 64 67
33 32 32 31 28 25 24 24 25 25 24 24 24 23 21 21 22 23 22 21 21 20 20 20 21 21 22 23 24 25 26 28 30 33 37 39 41 41 42 42 41 41 42 42 43 44 46 46 46 47 48 48 46 45 45 45 46 46 47 49 50 51 52 54 55 57 60 62 65 66 66 65 67 70 73 73 72 69 65 60 57 58 60 63 65
32 32 31 28 25 24 24 24 24 25 24 24 24 23 21 21 22 23 21 20 19 18 17 18 18 19 19 19 20 21 23 24 26 30 33 36 38 40 42 42 42 42 42 42 42 43 44 44 44 46 48 47 44 43 42 42 42 43 45 46 48 49 51 52 54 57 59 61 62 62 63 65 69 72 73 71 67 64 60 58 58 60 63 65 65
31 31 30 26 24 23 24 25 25 25 25 24 24 23 21 21 23 23 21 19 17 16 15 16 16 16 16 16 16 18 20 21 23 26 29 31 34 36 38 40 40 40 40 39 39 40 41 41 42 45 45 43 42 41 40 40 40 41 42 43 45 47 48 50 52 55 57 58 59 60 62 65 67 68 67 65 63 62 61 62 63 65 67 68 67
30 30 29 25 23 24 25 26 26 26 25 24 24 23 21 21 22 22 20 17 15 14 14 15 15 14 14 14 14 15 17 19 21 23 25 28 30 32 34 35 35 35 35 35 35 36 37 38 40 41 41 40 40 39 38 38 38 39 40 41 42 44 46 47 49 51 53 55 56 57 58 60 62 63 64 64 64 64 64 65 66 68 68 67 66
29 30 28 25 24 25 26 27 27 26 25 24 24 23 22 21 22 22 19 16 14 13 13 14 13 12 12 12 12 13 14 16 18 20 22 24 26 28 29 30 31 31 32 32 33 35 36 38 39 39 38 37 36 35 35 35 36 36 37 38 39 41 43 45 47 49 50 52 54 55 57 60 62 63 64 64 64 63 63 64 65 65 64 63 63
29 30 29 26 26 27 28 28 28 27 25 25 25 23 22 22 22 21 18 15 13 12 12 12 12 11 11 10 11 11 12 14 15 17 19 21 23 24 26 27 29 30 31 32 34 36 37 38 38 38 37 36 36 35 35 34 34 35 36 38 39 40 42 43 45 47 49 51 53 55 57 58 59 60 61 61 61 61 62 63 64 63 63 63 64
30 30 29 28 27 28 29 29 28 27 26 25 25 24 22 22 22 21 17 14 13 13 12 12 11 10 9 9 10 11 12 13 14 16 17 18 20 22 24 27 29 31 33 35 37 38 39 39 39 38 38 38 37 36 36 35 35 36 38 39 40 40 41 41 42 43 44 46 48 50 51 52 53 55 56 56 57 59 61 63 64 64 64 64 64
31 31 30 29 29 29 30 30 29 28 26 26 25 24 23 23 23 20 17 15 14 13 13 11 10 9 9 10 11 12 14 15 16 18 19 20 22 24 27 29 32 35 37 39 40 41 40 40 40 39 39 38 37 36 36 38 39 39 39 39 39 39 38 38 38 38 40 42 44 46 48 49 51 53 54 55 57 60 63 64 65 65 65 65 66
31 31 31 30 30 31 31 31 30 28 27 26 26 25 24 23 23 20 17 16 16 15 13 12 11 11 13 14 15 16 17 19 21 22 24 25 26 28 30 32 34 36 38 40 41 41 41 40 40 39 38 36 36 38 40 42 43 42 41 40 40 40 40 39 40 40 41 43 44 46 49 51 53 55 56 58 60 62 63 63 63 64 65 67 68
32 32 32 32 32 32 32 32 31 29 28 27 27 26 25 25 24 21 18 17 18 17 15 14 15 17 19 20 21 21 22 23 25 27 28 30 31 32 32 33 34 35 35 36 38 39 39 39 38 37 36 37 41 45 47 46 45 44 44 44 44 43 42 42 42 43 44 45 47 50 52 54 56 57 58 59 60 61 63 63 64 65 66 68 68
33 33 33 33 34 34 34 34 33 31 29 28 28 27 27 26 25 22 20 20 20 19 18 20 22 24 25 25 25 25 25 26 27 28 30 31 33 34 35 36 37 36 34 33 35 36 36 36 36 37 39 44 50 53 52 50 48 47 46 46 45 43 41 41 42 44 46 49 51 53 54 55 56 57 58 59 60 61 62 63 64 65 66 67 68
34 34 34 35 36 36 35 35 34 33 30 29 29 29 28 29 28 25 23 23 23 22 23 26 28 29 29 28 28 27 27 26 26 28 29 31 33 34 35 36 37 38 37 35 34 34 35 35 37 40 46 52 55 55 53 53 51 50 48 47 44 42 41 42 43 45 48 50 51 52 53 55 56 57 58 58 59 60 62 63 65 66 67 67 68
35 35 36 37 38 38 37 36 36 34 32 31 30 30 31 31 30 28 26 26 26 27 28 31 32 33 32 30 29 28 28 27 26 27 28 30 32 33 34 35 36 37 37 36 35 35 35 36 39 46 54 58 58 55 53 53 53 52 51 48 44 42 42 43 45 48 50 51 51 52 53 54 55 56 57 58 60 63 65 67 67 68 68 68 67
36 36 37 38 40 40 39 38 37 36 34 32 32 32 33 34 33 31 29 30 30 31 33 35 35 35 35 33 31 30 29 29 29 29 29 32 34 35 36 37 38 38 38 37 36 37 38 40 44 51 57 60 59 57 54 54 54 52 50 47 45 44 45 47 49 51 52 52 52 52 53 54 55 57 58 59 61 64 66 67 67 67 67 67 67
37 37 38 40 41 42 41 40 39 38 36 34 34 34 35 37 36 34 33 33 34 35 37 38 38 38 37 36 35 33 31 31 32 33 35 37 38 39 40 41 42 42 41 40 40 40 41 45 51 56 59 59 58 58 56 55 54 52 51 49 49 48 48 49 50 51 52 52 52 53 54 55 57 58 60 61 63 65 66 66 67 68 68 69 69
39 39 39 41 43 44 43 42 41 39 38 36 35 36 38 39 39 37 36 36 37 39 40 41 41 40 39 38 37 35 34 33 34 37 40 42 43 43 44 46 47 46 44 42 41 41 42 46 51 56 58 58 58 58 58 57 55 54 53 52 52 52 52 52 52 52 53 54 55 57 58 59 60 61 62 64 65 66 67 68 69 69 70 70 70
Wind_Direction
256 256 256 256 256 256 255 254 253 253 252 252 252 251 251 250 250 249 248 248 247 247 246 246 245 245 245 245 245 245 244 244 243 243 242 240 239 239 238 238 238 238 238 238 239 238 236 235 235 232 228 227 229 230 232 236 239 241 244 246 247 248 250 249 247 246 247 247 246 249 252 254 254 256 257 259 260 263 265 268 271 274 276 278 281
257 257 257 257 257 256 256 255 254 253 253 252 252 251 251 251 250 250 249 249 248 247 247 246 246 245 245 245 245 245 245 244 244 243 243 242 241 240 239 239 238 238 238 238 238 239 238 236 237 237 233 228 228 229 229 233 238 240 242 245 245 246 248 250 249 247 247 247 247 247 250 253 254 255 257 259 261 263 266 268 271 273 274 276 279
257 257 257 257 256 256 256 255 255 254 253 253 252 252 251 251 251 250 250 250 249 248 247 247 246 246 246 246 245 244 244 244 244 243 243 243 242 241 240 239 239 238 238 238 237 238 239 238 237 238 238 234 231 229 229 230 233 236 238 240 242 244 246 248 250 250 247 246 246 247 249 251 253 254 256 259 261 263 265 267 270 272 273 275 277
257 257 256 256 256 256 255 255 255 254 254 253 253 252 252 252 251 251 251 250 250 249 248 247 246 246 245 246 246 245 245 244 244 243 243 243 243 243 242 240 239 238 238 238 238 237 237 238 237 237 238 238 236 233 231 230 230 232 234 234 236 241 244 247 250 252 251 248 246 246 247 251 254 254 255 258 260 262 264 267 269 270 272 274 275
258 257 257 257 257 257 256 256 255 255 254 253 253 253 252 252 252 252 251 251 250 250 249 248 247 246 245 245 245 245 245 245 244 244 243 243 243 243 243 242 240 239 238 237 238 238 237 237 237 237 237 238 239 238 237 234 231 230 232 232 234 237 241 244 247 250 253 253 250 246 245 249 253 255 255 256 257 259 262 265 268 269 271 273 273
259 258 258 258 258 258 257 257 256 255 255 254 253 253 252 252 252 252 251 251 251 250 250 250 249 248 246 246 245 245 245 245 245 244 244 243 242 242 242 242 242 241 240 238 237 237 237 237 237 237 237 237 238 240 240 240 237 234 232 233 234 236 239 241 243 246 250 254 255 251 247 247 250 253 255 255 256 259 262 264 267 269 270 270 271
260 259 259 259 258 258 258 257 257 256 256 255 254 254 253 252 252 251 251 251 251 251 250 250 250 249 248 247 246 246 246 246 245 245 245 244 243 242 241 241 242 242 241 240 238 237 237 237 237 237 237 237 237 238 239 241 242 240 237 235 235 237 239 242 242 242 244 249 254 255 251 248 250 252 253 255 257 259 261 263 264 265 267 269 271
261 261 260 260 259 259 258 258 258 257 257 256 256 255 254 253 252 252 251 251 251 251 250 250 250 250 249 249 248 247 246 246 246 245 245 244 244 243 242 241 241 242 242 242 241 239 238 237 237 237 237 237 237 237 238 239 241 243 242 241 239 239 241 244 244 242 241 244 249 253 253 252 252 253 254 256 258 259 259 260 262 264 267 269 271
261 261 261 261 260 260 259 259 258 258 258 257 257 256 255 255 254 253 252 252 251 251 251 250 250 250 250 249 249 248 247 246 246 245 245 244 244 243 243 242 241 241 241 242 242 242 240 238 237 237 237 237 237 237 237 237 239 241 243 244 243 242 243 244 245 244 243 243 244 247 249 252 253 254 255 256 257 258 259 260 263 265 267 269 270
262 262 262 262 261 261 260 260 259 259 259 258 258 257 256 256 255 254 253 253 252 252 251 250 250 250 250 249 249 249 248 247 246 246 245 244 244 243 243 243 243 242 241 241 241 242 242 241 239 237 237 237 237 237 238 237 237 239 241 242 243 244 245 245 246 246 245 244 244 244 244 246 249 252 253 254 255 257 258 260 263 265 266 268 269
262 263 263 263 263 263 262 262 261 260 260 259 259 258 257 257 256 255 254 254 253 253 252 251 251 250 250 250 249 249 249 248 247 246 246 245 244 244 243 243 243 243 242 241 241 241 242 242 242 240 238 237 237 238 238 238 238 238 239 240 241 242 244 245 246 246 245 246 246 246 244 244 246 249 250 252 253 255 256 258 260 263 265 266 268
263 263 263 264 264 264 264 263 263 262 261 261 260 259 258 257 257 256 255 255 254 254 253 252 252 251 250 250 250 250 249 249 248 248 247 246 245 244 244 243 243 243 243 242 242 241 241 241 242 242 240 239 238 238 238 238 238 238 238 239 240 241 241 243 244 245 246 246 247 246 245 245 247 248 250 250 251 253 254 255 258 260 262 264 266
264 264 264 264 265 265 265 264 264 264 263 262 261 260 259 259 258 257 256 256 255 255 254 254 253 252 252 251 251 250 250 250 249 249 248 247 246 245 244 244 243 243 243 243 243 242 242 241 241 241 241 241 240 239 238 238 237 238 238 238 239 240 241 241 243 244 245 246 247 246 245 245 246 248 249 249 251 253 254 255 256 258 259 261 264
264 265 265 265 265 265 265 265 265 265 264 264 263 262 261 260 259 258 257 257 256 256 256 255 255 254 253 252 252 251 251 250 250 250 249 248 247 246 245 244 243 243 243 243 243 243 243 242 241 240 240 241 241 240 239 238 238 237 238 238 238 239 239 241 242 243 244 245 246 247 246 244 244 246 247 249 250 252 253 255 256 257 259 261 264
264 265 265 265 265 265 266 265 265 265 265 264 264 263 262 262 261 260 259 258 258 257 257 256 256 255 254 254 253 252 251 251 251 250 250 249 249 248 246 245 244 243 243 243 243 243 243 243 242 241 240 240 240 240 240 239 238 238 238 238 238 238 238 239 241 242 243 244 245 246 246 245 245 246 248 249 249 250 252 254 255 256 259 261 262
264 264 265 265 265 265 265 265 265 264 264 264 264 263 263 262 261 261 260 259 258 258 257 257 256 256 255 254 254 253 252 252 251 251 250 250 249 249 247 246 245 244 244 244 243 243 243 243 243 242 241 240 240 239 239 239 239 238 238 238 238 238 238 238 239 240 242 243 243 244 245 245 246 247 248 248 248 249 251 252 253 255 257 258 260
264 264 265 265 265 265 265 264 264 264 263 263 263 262 262 261 261 260 259 259 258 258 257 257 257 256 256 255 254 253 253 253 252 252 251 251 250 250 249 247 246 245 245 245 244 243 243 243 243 242 242 241 240 240 239 238 238 238 238 238 238 238 238 238 238 239 240 242 243 244 244 244 245 246 248 248 248 249 249 251 252 253 255 257 259
264 265 265 265 265 265 265 265 264 264 264 264 264 263 263 262 261 260 259 258 257 257 256 256 256 255 254 254 254 253 253 253 253 252 252 252 252 251 250 249 248 247 246 245 244 243 243 242 242 242 241 241 241 240 239 238 237 237 237 238 238 238 238 238 238 238 238 240 241 243 244 244 244 246 248 248 248 249 249 251 252 253 255 257 259
265 265 266 266 265 265 265 266 267 267 267 267 267 266 265 264 262 261 260 258 257 257 255 254 253 253 252 252 253 253 252 252 252 252 252 252 252 252 251 250 249 247 246 245 244 243 242 241 241 240 240 240 240 240 239 239 238 237 236 236 237 237 238 238 238 237 237 237 239 240 242 243 244 245 246 248 248 249 250 251 252 253 254 256 258
266 266 266 266 266 267 268 269 270 271 271 271 270 268 267 265 264 262 261 260 258 257 255 253 252 252 252 251 251 252 251 251 252 251 251 251 251 251 251 250 248 246 244 243 242 241 241 240 240 239 239 239 239 239 239 239 238 237 236 235 235 236 236 237 237 236 236 236 237 238 240 241 242 244 245 246 247 248 249 250 251 252 253 255 257
266 266 266 267 268 269 271 273 274 275 275 274 272 270 268 267 265 264 263 261 259 257 256 254 253 253 252 251 251 250 250 250 250 250 250 250 250 249 249 247 245 244 243 242 241 240 240 239 239 238 238 238 238 238 238 238 238 237 237 236 235 235 235 236 237 236 236 236 236 237 238 240 241 243 244 245 246 247 248 248 249 251 252 254 255
265 266 267 268 270 272 274 276 277 277 276 275 273 271 269 267 266 265 263 261 260 258 257 256 255 254 253 252 250 249 249 248 248 248 248 248 248 247 246 245 243 242 241 240 240 239 238 238 238 237 237 237 237 237 237 237 237 237 237 236 236 235 235 236 236 236 236 236 236 237 237 238 240 241 243 244 245 246 247 247 248 250 251 252 253
264 265 267 270 272 274 276 277 278 277 275 273 272 271 269 267 265 263 262 261 260 259 258 256 255 254 253 251 249 247 246 246 246 246 246 246 246 245 243 242 241 240 239 238 238 237 237 236 236 236 236 235 236 236 236 237 237 237 237 236 236 236 235 236 236 236 237 237 237 237 237 238 239 240 242 243 244 245 246 247 248 249 250 250 252
263 265 268 271 273 275 276 277 276 275 273 272 271 270 268 265 263 261 260 260 260 259 257 255 253 252 251 249 247 245 245 244 244 245 244 243 243 242 240 239 239 237 237 236 236 235 235 234 234 235 235 234 235 235 235 236 236 236 236 235 235 235 236 236 236 236 236 236 236 236 237 237 238 239 240 242 243 244 245 247 248 249 249 249 250
263 265 268 271 273 274 276 276 274 273 272 271 269 267 265 263 261 260 259 258 258 256 254 252 251 250 248 247 246 244 244 243 242 242 241 239 238 237 236 235 235 234 234 234 234 234 233 232 233 234 234 233 233 233 233 234 235 235 235 235 234 235 236 236 236 235 236 236 236 236 236 236 236 237 239 240 242 243 244 246 247 247 248 248 249
262 265 268 270 272 274 274 274 273 272 271 269 266 264 262 260 259 258 256 254 253 253 251 249 248 248 247 246 245 244 243 242 241 239 237 235 233 232 231 231 231 231 232 232 232 232 232 232 232 232 232 231 231 231 231 232 233 234 234 234 234 234 235 235 235 235 235 235 235 235 235 235 235 236 237 238 240 241 243 244 244 245 246 247 248
262 265 268 270 272 273 274 273 272 270 268 265 263 261 260 258 257 255 252 250 250 250 249 248 248 247 247 246 245 244 244 243 242 240 238 235 233 232 230 230 230 229 229 230 230 229 229 229 229 230 230 230 229 229 230 231 232 233 233 233 233 233 233 234 233 233 233 233 234 234 234 234 234 234 235 236 237 239 240 241 243 245 246 247 249
262 266 268 270 271 272 272 271 270 267 264 262 260 258 257 255 252 249 248 247 248 249 249 249 248 248 247 246 245 245 245 245 245 243 241 238 236 235 233 231 230 230 230 229 228 227 227 226 227 227 228 228 228 228 229 230 230 231 231 232 232 232 232 232 232 232 233 233 233 233 232 232 232 233 233 233 234 236 237 239 241 244 246 247 248
263 266 268 270 271 271 271 269 266 263 260 258 256 255 253 250 246 244 245 246 247 248 248 248 248 247 247 246 245 245 246 246 246 245 243 240 236 235 234 232 230 230 231 230 229 229 229 228 227 227 227 227 227 227 227 228 228 228 229 230 230 230 230 230 230 230 230 231 231 231 231 231 231 231 231 231 232 233 235 237 240 243 245 246 247
264 266 268 269 270 270 269 266 263 259 256 254 252 250 248 245 242 241 243 244 245 245 245 245 246 247 248 247 246 245 245 246 246 245 243 241 237 234 233 231 229 228 230 232 231 231 231 231 230 230 229 229 228 227 226 226 226 227 227 228 228 228 228 227 227 227 227 228 228 228 227 228 228 229 229 229 229 231 233 235 238 241 244 245 246
263 265 267 268 269 268 266 262 258 255 251 249 248 247 244 241 239 240 241 241 242 243 244 245 247 250 251 251 250 248 246 245 244 242 241 239 236 233 230 230 228 227 228 230 231 231 231 231 232 231 231 230 228 227 226 225 226 226 226 226 226 227 226 225 224 224 225 225 225 225 225 225 226 227 228 227 227 229 231 234 237 240 242 244 246
262 264 266 267 266 264 262 258 254 250 247 246 245 244 241 239 237 238 238 238 240 243 246 249 252 254 254 254 252 250 246 242 239 236 234 231 229 227 225 225 226 226 226 227 229 230 230 230 231 231 230 229 228 226 225 225 225 225 225 225 225 226 225 224 223 222 221 222 222 222 222 223 225 226 226 225 226 228 230 233 236 239 241 243 245
260 262 264 264 262 260 257 253 248 245 244 244 243 241 239 236 236 236 235 236 241 245 249 253 255 255 255 253 251 248 245 240 236 231 227 224 223 223 223 222 223 225 225 226 228 229 230 229 228 228 228 227 226 224 224 224 224 224 224 224 224 224 224 222 221 220 219 219 219 219 220 221 222 222 223 223 225 227 229 232 235 238 241 243 245
259 261 262 260 259 257 253 247 242 240 240 241 240 240 237 234 234 235 235 239 245 249 252 254 253 252 251 249 247 245 242 240 236 232 227 225 225 225 225 225 224 225 226 226 227 228 229 228 227 225 224 223 222 221 221 221 222 222 222 222 223 223 223 221 220 219 217 216 216 216 217 218 219 219 220 222 224 226 229 232 235 238 241 243 245
258 259 258 256 255 252 247 241 238 237 237 238 239 239 236 234 235 236 238 244 249 251 251 251 249 247 247 246 244 243 241 238 236 233 229 228 228 228 228 227 226 226 226 226 226 227 228 228 226 223 220 218 219 219 218 218 219 219 219 219 220 220 220 220 219 218 216 214 213 214 215 216 216 217 218 221 223 226 228 231 233 236 239 242 244
256 255 253 252 251 248 241 236 233 233 234 236 238 238 234 234 237 239 242 248 251 250 249 248 247 246 247 246 245 243 240 237 234 231 228 226 226 227 228 228 227 226 226 226 226 226 227 226 224 219 216 215 215 216 215 216 216 215 216 217 217 218 217 217 216 216 215 214 213 212 213 213 213 214 216 218 221 223 225 227 229 233 237 240 243
254 252 250 249 247 242 235 231 229 230 231 233 236 235 231 233 238 242 245 249 249 246 248 250 250 249 250 250 249 247 243 239 234 229 225 223 223 224 225 226 226 226 226 227 227 226 226 224 220 214 211 211 212 212 211 211 212 212 213 214 215 216 215 215 214 213 213 213 212 212 211 211 212 214 216 218 219 220 221 223 226 230 234 237 240
251 250 248 246 241 235 230 227 226 226 228 231 233 232 230 232 238 242 245 245 243 243 249 254 255 254 254 255 255 253 248 241 234 228 224 221 221 221 222 223 224 224 225 225 224 224 222 219 213 208 206 206 206 206 206 206 207 209 211 213 213 213 214 213 212 212 211 211 210 210 210 211 213 215 215 216 217 218 219 222 225 230 233 236 239
248 247 246 242 234 229 226 223 223 224 225 228 231 230 229 232 238 242 242 240 238 244 253 257 258 259 259 259 258 254 247 240 233 227 223 220 219 219 220 221 221 221 220 219 218 216 213 207 202 200 200 201 201 201 201 202 204 207 209 211 211 211 211 210 210 210 210 209 208 208 209 210 211 212 213 214 216 218 221 224 228 232 236 240 243
245 245 243 237 229 224 222 220 220 221 223 226 229 228 228 231 236 238 236 234 236 245 254 257 258 260 260 257 253 245 237 231 226 222 219 217 216 215 215 216 214 212 210 207 204 201 196 191 190 191 193 195 196 197 198 201 205 207 207 207 207 206 205 204 204 205 205 205 205 204 204 206 208 211 213 216 218 220 223 227 232 236 240 244 247
242 242 240 233 225 221 219 218 218 219 221 224 227 226 226 229 233 232 229 228 235 245 250 252 255 256 253 247 237 227 219 214 211 209 207 208 208 206 205 204 201 197 194 190 187 183 181 180 182 184 186 189 191 194 198 202 205 204 201 199 198 198 198 198 198 199 200 201 202 202 204 206 209 212 215 218 220 223 226 230 234 238 241 243 245
239 238 236 230 223 219 218 216 216 217 219 222 225 225 225 227 228 226 221 223 232 239 240 242 246 245 237 223 210 200 194 190 188 186 185 188 190 190 189 187 185 181 177 173 171 171 173 176 179 182 184 187 191 195 197 197 195 193 191 189 188 188 188 189 191 193 195 197 200 201 204 206 209 213 216 218 221 224 227 231 234 237 238 240 243
237 236 234 228 222 219 217 216 214 216 218 221 223 224 223 223 223 219 215 219 226 227 226 228 229 220 206 192 181 175 172 169 166 163 162 163 166 168 168 169 169 167 166 165 167 169 173 177 180 181 184 187 192 194 192 187 182 179 177 177 177 176 176 178 182 185 188 191 194 197 201 204 207 211 214 218 221 225 228 231 233 235 236 239 243
235 234 232 226 220 218 217 215 214 214 216 220 222 222 220 219 217 213 211 215 219 216 212 210 202 187 175 166 160 159 158 155 153 152 151 151 153 156 158 161 162 163 165 167 169 171 174 177 179 182 185 188 187 184 179 175 171 168 167 168 170 169 169 172 176 179 183 187 191 196 201 205 208 212 216 220 224 228 231 232 233 234 237 241 245
232 231 229 224 219 217 217 215 213 213 215 219 221 221 218 214 211 209 210 212 211 207 200 191 178 167 159 153 149 149 149 149 149 149 149 150 151 153 155 158 159 161 166 170 171 172 175 178 181 183 184 182 176 171 168 166 165 165 167 169 170 169 171 176 180 183 187 192 197 202 206 210 213 216 219 222 226 229 231 232 234 236 239 243 246
231 229 227 223 218 216 216 215 213 212 213 217 220 219 215 210 206 205 208 208 205 199 190 178 167 159 155 151 147 146 145 146 149 150 150 151 152 153 155 157 157 158 163 169 173 174 177 181 183 182 178 173 170 168 167 166 166 167 169 169 168 168 172 178 184 189 194 199 203 206 210 212 215 218 220 223 226 229 232 234 236 238 241 244 247
229 226 224 222 218 216 215 214 213 212 212 215 218 217 213 206 203 203 205 204 201 194 185 174 165 159 156 154 151 150 149 150 153 154 154 155 156 158 160 161 161 162 166 173 179 181 182 184 184 179 172 170 171 171 171 170 170 170 171 171 171 173 177 182 188 193 198 202 205 208 212 215 217 220 223 226 229 232 235 237 239 241 243 246 250
228 225 222 220 218 216 214 214 213 212 211 213 215 215 210 204 201 201 202 201 197 191 184 176 168 163 161 160 159 158 158 158 161 164 165 165 165 167 167 168 169 171 172 176 181 182 182 183 183 178 172 172 174 175 176 177 177 176 176 177 180 182 186 191 196 201 204 207 209 212 215 218 221 223 226 228 231 234 236 239 242 243 246 249 253
226 224 221 218 217 216 215 213 213 213 212 212 214 214 209 203 200 201 201 199 194 190 186 180 174 170 168 167 167 166 166 166 168 171 174 174 174 174 174 172 172 172 172 173 175 176 176 178 180 178 176 176 177 178 180 182 183 182 182 184 187 190 194 199 203 206 209 211 214 216 219 222 225 227 229 232 234 236 239 242 245 247 249 252 255
225 223 220 217 215 215 215 213 213 213 213 212 212 212 209 203 199 200 201 198 194 191 188 185 180 178 177 176 174 173 172 172 172 173 175 176 178 178 176 173 170 168 168 169 171 172 173 175 178 179 179 180 182 183 184 187 189 190 191 192 193 196 200 205 208 211 214 217 219 222 224 227 229 232 234 236 238 241 243 246 248 250 252 255 257
224 222 220 217 215 214 214 214 213 212 212 212 212 211 209 203 200 200 201 199 195 193 192 190 187 185 185 184 181 178 176 176 176 175 176 177 178 178 175 171 169 168 169 171 173 175 176 177 180 182 184 185 187 188 190 192 194 196 199 200 201 203 206 209 212 215 218 221 223 225 228 230 233 236 238 240 242 245 247 249 251 253 255 257 259
Height
10534 10536 10536 10537 10539 10540 10541 10542 10543 10545 10547 10549 10551 10553 10554 10556 10558 10559 10562 10564 10566 10569 10572 10575 10577 10579 10581 10584 10586 10588 10590 10593 10595 10599 10602 10605 10608 10611 10614 10617 10621 10625 10628 10631 10635 10638 10642 10645 10648 10651 10654 10657 10661 10662 10664 10667 10669 10672 10676 10679 10681 10683 10684 10689 10695 10696 10697 10702 10704 10704 10706 10708 10709 10711 10713 10714 10715 10716 10715 10714 10716 10719 10718 10717 10717
10524 10525 10526 10528 10529 10530 10531 10532 10533 10535 10537 10539 10541 10542 10544 10545 10547 10550 10552 10554 10557 10560 10562 10565 10567 10570 10572 10574 10576 10578 10580 10582 10585 10589 10592 10595 10597 10600 10603 10607 10611 10615 10618 10622 10625 10628 10633 10637 10640 10642 10645 10649 10653 10655 10657 10659 10662 10665 10668 10672 10675 10676 10677 10680 10685 10689 10692 10694 10697 10700 10702 10701 10703 10707 10708 10709 10711 10712 10710 10709 10712 10714 10713 10712 10713
10514 10515 10517 10518 10519 10519 10521 10522 10523 10525 10527 10529 10530 10532 10533 10535 10537 10540 10542 10544 10547 10549 10552 10554 10557 10559 10562 10563 10566 10568 10570 10572 10575 10579 10582 10584 10587 10590 10593 10596 10601 10605 10608 10612 10615 10619 10623 10627 10631 10633 10636 10641 10644 10647 10651 10653 10655 10658 10661 10664 10667 10669 10671 10672 10675 10680 10684 10687 10691 10696 10698 10694 10696 10702 10703 10704 10707 10707 10705 10704 10707 10708 10707 10708 10708
10504 10505 10507 10508 10508 10509 10510 10512 10513 10515 10517 10518 10520 10521 10523 10525 10527 10530 10532 10534 10536 10537 10540 10543 10546 10549 10551 10553 10555 10557 10560 10562 10565 10568 10571 10574 10576 10579 10582 10585 10589 10593 10597 10601 10603 10608 10613 10617 10622 10624 10626 10631 10635 10639 10643 10646 10649 10651 10654 10657 10660 10662 10664 10665 10669 10671 10673 10679 10685 10691 10693 10690 10689 10696 10699 10699 10701 10701 10699 10699 10702 10702 10702 10703 10703
10493 10495 10497 10498 10498 10499 10501 10502 10503 10504 10506 10507 10510 10511 10513 10515 10517 10519 10521 10522 10524 10526 10529 10532 10535 10538 10540 10542 10544 10546 10549 10551 10555 10557 10560 10563 10565 10568 10570 10573 10577 10581 10585 10589 10592 10597 10602 10607 10611 10613 10617 10623 10626 10630 10634 10637 10640 10643 10646 10650 10653 10656 10658 10659 10663 10664 10664 10670 10677 10683 10689 10687 10683 10688 10693 10693 10695 10695 10694 10695 10696 10697 10697 10697 10696
10483 10485 10487 10487 10488 10489 10490 10491 10492 10493 10495 10497 10499 10501 10503 10504 10506 10508 10509 10510 10512 10515 10517 10520 10523 10526 10528 10531 10533 10535 10538 10541 10544 10547 10549 10551 10554 10556 10558 10561 10564 10568 10572 10576 10580 10585 10590 10596 10600 10603 10608 10614 10618 10621 10624 10627 10630 10633 10638 10643 10645 10649 10651 10653 10657 10659 10659 10662 10665 10674 10683 10682 10678 10682 10685 10686 10688 10689 10689 10690 10690 10691 10691 10690 10690
10472 10474 10476 10476 10477 10478 10479 10480 10481 10482 10484 10486 10488 10490 10491 10493 10495 10496 10497 10499 10501 10504 10506 10509 10511 10514 10516 10519 10522 10524 10527 10530 10533 10535 10536 10539 10541 10543 10546 10549 10552 10556 10560 10564 10569 10574 10579 10584 10588 10593 10599 10604 10608 10611 10614 10617 10620 10624 10630 10635 10636 10641 10645 10647 10650 10654 10656 10656 10657 10663 10672 10673 10672 10676 10678 10679 10682 10684 10685 10685 10684 10683 10683 10683 10685
10460 10461 10463 10465 10466 10467 10468 10469 10470 10471 10473 10475 10476 10478 10480 10481 10483 10484 10486 10488 10490 10492 10495 10497 10500 10502 10504 10506 10509 10513 10517 10519 10521 10522 10524 10526 10528 10531 10534 10538 10541 10545 10549 10553 10558 10563 10568 10573 10578 10583 10588 10593 10597 10600 10604 10608 10611 10615 10621 10624 10628 10634 10638 10639 10641 10646 10651 10652 10651 10654 10661 10665 10666 10669 10671 10674 10676 10678 10678 10676 10675 10676 10677 10678 10679
10448 10449 10451 10452 10453 10455 10456 10457 10459 10460 10462 10464 10465 10466 10468 10469 10471 10473 10474 10476 10478 10480 10483 10485 10488 10490 10491 10494 10497 10501 10504 10507 10508 10509 10510 10513 10516 10519 10523 10526 10530 10534 10538 10543 10547 10551 10556 10561 10567 10573 10577 10581 10585 10589 10594 10599 10603 10607 10611 10614 10619 10626 10629 10630 10632 10638 10643 10644 10643 10648 10656 10658 10658 10660 10665 10668 10668 10668 10669 10669 10670 10671 10673 10673 10673
10437 10438 10439 10440 10441 10442 10444 10446 10448 10449 10451 10452 10453 10454 10456 10457 10458 10460 10462 10464 10466 10467 10470 10472 10475 10477 10479 10482 10485 10488 10492 10494 10495 10495 10498 10500 10504 10507 10511 10515 10519 10523 10527 10532 10536 10539 10543 10548 10555 10562 10566 10570 10574 10579 10584 10589 10595 10599 10601 10604 10609 10616 10620 10622 10625 10630 10634 10634 10635 10643 10651 10652 10651 10653 10656 10657 10657 10659 10662 10663 10665 10666 10667 10667 10667
10425 10426 10426 10427 10428 10429 10432 10434 10435 10437 10439 10439 10440 10441 10442 10443 10445 10447 10449 10451 10452 10454 10456 10459 10461 10464 10467 10470 10473 10476 10479 10481 10481 10482 10485 10487 10491 10495 10499 10503 10507 10512 10516 10521 10525 10528 10531 10536 10542 10549 10555 10560 10564 10568 10573 10578 10584 10589 10591 10593 10599 10606 10612 10613 10616 10621 10625 10626 10629 10636 10643 10645 10644 10646 10648 10648 10650 10652 10655 10657 10659 10661 10661 10660 10660
10413 10414 10414 10415 10416 10417 10419 10421 10422 10424 10425 10426 10426 10427 10428 10430 10431 10433 10435 10437 10438 10440 10442 10445 10448 10450 10454 10457 10460 10463 10465 10466 10467 10469 10471 10473 10477 10481 10486 10492 10496 10501 10505 10510 10513 10517 10520 10525 10529 10536 10543 10548 10552 10556 10561 10567 10573 10578 10580 10583 10588 10596 10601 10604 10606 10611 10615 10618 10621 10627 10635 10638 10637 10638 10638 10639 10641 10644 10648 10651 10654 10655 10655 10653 10654
10400 10401 10402 10402 10404 10405 10406 10407 10409 10410 10411 10411 10412 10414 10415 10416 10418 10420 10422 10423 10424 10426 10428 10430 10433 10436 10439 10443 10446 10448 10450 10451 10452 10454 10456 10458 10462 10467 10473 10479 10484 10489 10494 10498 10502 10505 10509 10513 10518 10524 10531 10535 10539 10544 10550 10556 10562 10566 10569 10572 10577 10585 10591 10595 10598 10601 10605 10609 10612 10617 10627 10631 10629 10627 10626 10628 10633 10638 10642 10645 10647 10648 10647 10647 10649
10387 10388 10389 10390 10391 10392 10393 10395 10395 10396 10397 10398 10399 10400 10401 10403 10404 10405 10407 10409 10410 10412 10413 10416 10419 10422 10425 10428 10431 10433 10435 10435 10436 10437 10439 10442 10446 10452 10460 10466 10472 10477 10482 10486 10490 10493 10497 10501 10506 10512 10518 10522 10526 10532 10538 10543 10549 10554 10557 10561 10567 10574 10580 10584 10588 10589 10594 10601 10603 10607 10616 10621 10617 10613 10614 10620 10628 10633 10635 10637 10639 10641 10641 10642 10643
10376 10376 10377 10378 10379 10380 10381 10382 10382 10382 10383 10383 10384 10385 10386 10388 10389 10390 10392 10394 10396 10397 10399 10401 10404 10406 10409 10411 10415 10418 10418 10418 10419 10421 10423 10426 10429 10436 10445 10452 10458 10464 10469 10473 10477 10480 10484 10487 10493 10499 10505 10509 10514 10520 10525 10530 10536 10541 10546 10550 10556 10562 10569 10574 10576 10579 10585 10592 10594 10595 10602 10608 10606 10603 10606 10615 10622 10626 10627 10630 10632 10633 10634 10635 10637
10364 10365 10365 10366 10367 10369 10369 10369 10369 10369 10369 10370 10370 10371 10372 10373 10374 10376 10378 10379 10381 10382 10384 10386 10388 10390 10392 10394 10398 10401 10401 10401 10403 10406 10407 10409 10413 10420 10429 10436 10443 10451 10456 10459 10463 10467 10470 10474 10480 10485 10491 10496 10502 10507 10512 10517 10522 10528 10534 10539 10544 10550 10558 10563 10566 10570 10576 10581 10583 10584 10590 10596 10597 10596 10600 10607 10614 10617 10620 10622 10625 10626 10626 10628 10630
10353 10355 10355 10355 10356 10357 10357 10357 10357 10356 10357 10357 10358 10358 10359 10360 10361 10362 10364 10365 10366 10368 10369 10371 10373 10374 10376 10377 10380 10384 10385 10385 10387 10390 10391 10394 10398 10405 10413 10421 10430 10438 10443 10445 10448 10453 10457 10461 10465 10470 10477 10484 10489 10493 10498 10503 10510 10516 10522 10529 10534 10539 10547 10553 10557 10562 10567 10570 10573 10576 10580 10586 10589 10589 10592 10599 10606 10610 10612 10615 10617 10618 10619 10621 10623
10343 10344 10345 10345 10346 10346 10345 10345 10345 10345 10346 10346 10346 10347 10347 10348 10349 10350 10351 10352 10353 10354 10356 10357 10358 10359 10360 10360 10363 10367 10370 10370 10371 10374 10377 10379 10384 10390 10397 10407 10417 10424 10428 10430 10432 10437 10442 10446 10450 10456 10463 10469 10473 10477 10483 10490 10497 10505 10511 10517 10522 10528 10536 10543 10548 10553 10558 10561 10564 10567 10571 10576 10581 10581 10584 10591 10598 10601 10604 10607 10609 10611 10614 10615 10617
10333 10335 10335 10335 10335 10335 10335 10335 10335 10335 10335 10335 10336 10336 10336 10337 10337 10338 10339 10340 10340 10341 10343 10344 10344 10344 10345 10347 10349 10353 10356 10357 10357 10361 10364 10365 10369 10375 10384 10394 10402 10407 10410 10412 10415 10419 10425 10429 10434 10441 10448 10453 10457 10462 10469 10476 10485 10492 10498 10504 10511 10518 10526 10532 10536 10541 10546 10550 10554 10556 10560 10566 10571 10574 10577 10583 10588 10593 10596 10598 10601 10605 10608 10609 10610
10325 10325 10325 10325 10325 10325 10326 10326 10326 10326 10326 10326 10326 10326 10326 10326 10326 10327 10328 10329 10329 10329 10330 10331 10331 10332 10333 10336 10339 10341 10344 10345 10346 10348 10351 10353 10357 10364 10372 10380 10385 10388 10390 10394 10397 10402 10408 10413 10419 10426 10431 10436 10442 10447 10455 10464 10471 10477 10484 10491 10499 10508 10516 10519 10521 10526 10533 10539 10543 10547 10550 10556 10561 10565 10569 10574 10579 10584 10588 10591 10593 10597 10601 10602 10604
10316 10316 10316 10316 10316 10317 10317 10317 10317 10317 10317 10317 10316 10316 10316 10316 10316 10317 10318 10318 10318 10318 10318 10320 10322 10322 10324 10327 10330 10331 10333 10334 10334 10335 10339 10342 10346 10353 10360 10365 10369 10371 10374 10378 10382 10387 10394 10400 10405 10410 10415 10421 10427 10434 10442 10451 10456 10462 10471 10479 10488 10498 10504 10504 10507 10514 10522 10528 10534 10538 10542 10547 10552 10556 10560 10566 10572 10576 10580 10583 10585 10588 10593 10596 10596
10307 10307 10306 10307 10308 10309 10309 10310 10310 10309 10308 10308 10307 10306 10307 10307 10307 10308 10308 10308 10308 10308 10310 10312 10313 10314 10315 10317 10320 10321 10322 10324 10324 10325 10329 10333 10337 10343 10348 10352 10354 10357 10361 10366 10370 10375 10381 10387 10391 10395 10401 10407 10414 10421 10430 10437 10443 10449 10459 10469 10479 10487 10489 10490 10496 10505 10513 10519 10525 10529 10534 10539 10544 10548 10553 10559 10564 10569 10572 10574 10576 10580 10586 10589 10590
10299 10298 10299 10300 10301 10302 10302 10302 10302 10301 10300 10299 10299 10299 10299 10299 10299 10299 10300 10300 10300 10301 10302 10304 10306 10306 10307 10309 10312 10312 10313 10315 10316 10317 10322 10326 10329 10334 10338 10340 10343 10347 10351 10354 10358 10363 10369 10374 10378 10382 10388 10395 10402 10410 10419 10425 10430 10438 10448 10459 10468 10472 10473 10478 10488 10497 10504 10511 10517 10521 10527 10533 10537 10540 10546 10551 10556 10561 10564 10566 10569 10574 10578 10581 10583
10291 10291 10292 10294 10294 10295 10295 10295 10295 10294 10292 10292 10292 10292 10291 10291 10291 10292 10293 10293 10294 10294 10295 10297 10298 10299 10300 10302 10303 10304 10305 10307 10309 10311 10315 10319 10322 10325 10328 10331 10334 10338 10341 10344 10348 10352 10358 10363 10366 10371 10378 10386 10393 10400 10408 10414 10419 10427 10438 10447 10454 10457 10461 10470 10480 10487 10494 10501 10506 10511 10518 10525 10529 10534 10539 10543 10548 10554 10557 10559 10562 10566 10569 10572 10575
10284 10285 10287 10288 10288 10288 10289 10288 10288 10286 10286 10286 10285 10285 10285 10285 10285 10286 10287 10287 10287 10288 10289 10291 10292 10293 10294 10295 10296 10298 10299 10301 10303 10305 10308 10312 10315 10318 10320 10323 10326 10330 10333 10336 10339 10344 10349 10354 10358 10364 10371 10379 10385 10392 10398 10403 10409 10418 10427 10435 10442 10448 10454 10461 10469 10477 10483 10490 10496 10502 10508 10515 10520 10525 10531 10535 10540 10546 10551 10553 10555 10557 10560 10564 10566
10278 10279 10281 10282 10282 10282 10282 10282 10281 10280 10280 10280 10279 10279 10279 10279 10280 10281 10281 10282 10281 10282 10283 10285 10286 10287 10288 10290 10291 10292 10293 10295 10297 10300 10303 10306 10309 10311 10314 10316 10320 10324 10327 10329 10333 10338 10343 10348 10353 10358 10364 10370 10376 10382 10388 10393 10401 10410 10418 10426 10433 10439 10445 10451 10459 10466 10472 10478 10485 10491 10498 10505 10511 10516 10522 10528 10533 10539 10543 10545 10545 10547 10551 10555 10559
10272 10274 10276 10276 10276 10276 10276 10276 10275 10275 10275 10274 10274 10274 10274 10274 10275 10276 10276 10276 10276 10277 10279 10281 10282 10283 10284 10285 10287 10288 10289 10291 10293 10295 10298 10301 10303 10305 10308 10311 10314 10318 10321 10324 10328 10333 10337 10342 10346 10351 10356 10362 10368 10374 10380 10387 10396 10404 10411 10417 10424 10429 10434 10440 10447 10454 10461 10468 10474 10481 10488 10496 10502 10508 10515 10521 10526 10530 10534 10535 10536 10538 10543 10549 10553
10267 10269 10270 10271 10270 10270 10270 10270 10270 10270 10270 10269 10269 10269 10270 10270 10271 10272 10272 10272 10272 10274 10276 10277 10278 10278 10279 10281 10283 10284 10285 10287 10289 10291 10293 10296 10298 10301 10303 10306 10309 10312 10315 10318 10322 10326 10330 10334 10339 10343 10348 10354 10361 10368 10375 10382 10390 10397 10402 10407 10413 10418 10424 10431 10438 10446 10453 10460 10466 10472 10479 10487 10494 10500 10506 10511 10517 10521 10524 10526 10529 10532 10537 10542 10547
10262 10264 10265 10265 10265 10265 10265 10266 10266 10265 10265 10264 10265 10265 10266 10266 10267 10268 10268 10268 10270 10271 10273 10273 10274 10275 10276 10277 10279 10281 10282 10283 10284 10286 10288 10291 10293 10296 10298 10301 10304 10307 10309 10312 10317 10321 10325 10329 10333 10338 10343 10349 10355 10362 10369 10376 10382 10388 10393 10397 10402 10408 10414 10422 10430 10437 10443 10450 10456 10463 10472 10480 10486 10491 10496 10501 10507 10512 10515 10519 10522 10525 10530 10535 10540
10258 10259 10260 10260 10260 10260 10261 10261 10261 10260 10260 10260 10261 10261 10262 10263 10264 10264 10264 10266 10267 10268 10269 10270 10270 10271 10272 10274 10276 10277 10278 10279 10280 10282 10284 10286 10288 10291 10294 10297 10300 10302 10304 10308 10313 10317 10320 10324 10329 10333 10338 10344 10350 10356 10362 10368 10374 10379 10383 10388 10392 10398 10405 10413 10420 10426 10433 10438 10445 10454 10462 10469 10475 10481 10486 10493 10500 10504 10507 10510 10514 10518 10523 10528 10533
10254 10254 10254 10255 10255 10256 10257 10257 10257 10256 10256 10256 10257 10258 10259 10260 10261 10261 10262 10263 10265 10265 10266 10267 10267 10268 10269 10270 10271 10272 10273 10275 10276 10277 10279 10281 10283 10286 10289 10292 10295 10298 10301 10305 10308 10312 10315 10319 10323 10328 10333 10339 10345 10350 10355 10360 10365 10370 10374 10379 10385 10391 10398 10404 10411 10417 10423 10429 10437 10445 10452 10459 10466 10473 10479 10486 10493 10496 10498 10502 10507 10512 10517 10522 10525
10249 10249 10250 10250 10251 10252 10252 10253 10252 10252 10252 10253 10254 10255 10256 10258 10258 10259 10260 10261 10262 10262 10263 10264 10264 10265 10265 10266 10267 10268 10269 10270 10271 10273 10275 10277 10279 10281 10284 10288 10291 10295 10298 10301 10303 10306 10310 10314 10318 10323 10328 10333 10339 10344 10349 10353 10358 10363 10368 10374 10379 10385 10391 10397 10402 10408 10414 10421 10429 10438 10445 10453 10461 10467 10473 10479 10483 10486 10490 10496 10502 10507 10511 10516 10520
10244 10245 10245 10246 10246 10247 10248 10248 10248 10248 10249 10250 10251 10252 10253 10255 10255 10256 10257 10259 10259 10260 10260 10261 10261 10261 10261 10262 10263 10264 10265 10266 10268 10269 10271 10273 10275 10278 10281 10284 10287 10290 10293 10296 10298 10301 10305 10309 10313 10318 10323 10328 10333 10338 10343 10347 10352 10357 10363 10369 10374 10378 10384 10390 10396 10402 10408 10415 10422 10431 10439 10446 10453 10460 10466 10470 10474 10478 10485 10491 10496 10501 10507 10511 10513
10239 10240 10241 10241 10242 10243 10244 10244 10245 10245 10246 10247 10248 10249 10251 10252 10253 10254 10255 10256 10256 10257 10258 10258 10258 10258 10258 10259 10259 10260 10261 10262 10264 10265 10267 10269 10272 10274 10277 10280 10283 10285 10288 10291 10293 10296 10299 10302 10307 10312 10318 10323 10328 10332 10337 10341 10346 10352 10358 10363 10368 10374 10380 10386 10392 10397 10403 10409 10417 10425 10432 10438 10445 10453 10458 10462 10467 10474 10481 10487 10493 10499 10503 10505 10505
10235 10236 10236 10237 10238 10239 10240 10241 10242 10242 10243 10244 10246 10247 10249 10250 10251 10252 10253 10253 10253 10254 10254 10255 10255 10255 10255 10255 10255 10256 10257 10258 10259 10261 10263 10265 10268 10270 10273 10275 10278 10280 10283 10285 10288 10291 10293 10297 10301 10307 10313 10318 10322 10326 10331 10337 10342 10348 10353 10358 10363 10369 10376 10382 10387 10393 10399 10405 10411 10417 10424 10432 10440 10447 10452 10456 10463 10471 10478 10484 10490 10494 10496 10496 10497
10230 10231 10232 10233 10234 10236 10237 10238 10239 10239 10240 10242 10243 10245 10247 10248 10249 10249 10250 10251 10251 10251 10252 10252 10252 10252 10251 10252 10252 10252 10252 10253 10254 10256 10258 10260 10263 10265 10268 10270 10273 10275 10277 10280 10283 10286 10289 10292 10297 10302 10308 10313 10318 10323 10328 10334 10339 10344 10349 10354 10360 10365 10371 10377 10383 10389 10395 10401 10406 10412 10421 10429 10436 10441 10445 10452 10460 10468 10475 10480 10485 10487 10488 10489 10490
10225 10226 10227 10229 10231 10233 10234 10235 10236 10236 10238 10239 10241 10243 10245 10246 10247 10247 10248 10248 10248 10249 10249 10249 10249 10248 10248 10248 10248 10248 10248 10248 10250 10251 10253 10255 10258 10260 10263 10265 10268 10270 10273 10275 10278 10281 10285 10289 10293 10298 10303 10309 10315 10321 10326 10331 10337 10342 10347 10351 10357 10362 10367 10373 10379 10385 10391 10397 10404 10412 10419 10425 10430 10435 10442 10450 10459 10465 10471 10475 10478 10479 10480 10481 10484
10220 10221 10223 10226 10228 10229 10230 10231 10232 10233 10235 10237 10238 10240 10243 10244 10245 10245 10246 10246 10246 10247 10247 10246 10246 10246 10245 10245 10244 10244 10244 10244 10245 10247 10249 10251 10253 10255 10258 10260 10263 10265 10268 10271 10274 10278 10281 10286 10290 10296 10302 10308 10314 10319 10324 10330 10335 10340 10344 10349 10354 10359 10364 10370 10377 10383 10389 10396 10403 10410 10416 10422 10427 10435 10443 10450 10456 10461 10465 10468 10470 10471 10472 10475 10479
10216 10217 10219 10222 10225 10226 10227 10228 10229 10231 10232 10234 10236 10238 10240 10242 10243 10243 10243 10244 10244 10245 10244 10244 10244 10243 10242 10242 10241 10241 10241 10241 10242 10243 10245 10247 10249 10251 10253 10256 10258 10261 10264 10268 10271 10275 10279 10284 10290 10296 10302 10308 10313 10318 10323 10329 10333 10337 10342 10347 10353 10358 10363 10369 10376 10382 10389 10395 10402 10408 10415 10421 10428 10435 10441 10446 10451 10456 10459 10462 10463 10464 10466 10471 10475
10212 10213 10215 10219 10221 10222 10223 10225 10226 10228 10230 10232 10234 10236 10238 10240 10241 10241 10242 10242 10243 10243 10243 10242 10242 10241 10240 10239 10239 10238 10238 10239 10239 10240 10242 10244 10246 10248 10250 10253 10256 10259 10262 10265 10268 10273 10278 10284 10290 10297 10303 10308 10314 10319 10323 10328 10332 10337 10341 10346 10351 10356 10361 10367 10373 10380 10387 10394 10400 10406 10413 10419 10426 10432 10438 10443 10447 10451 10454 10456 10457 10459 10463 10467 10469
10208 10209 10211 10214 10217 10219 10220 10221 10223 10225 10228 10230 10232 10234 10237 10238 10239 10239 10240 10241 10241 10241 10241 10241 10240 10240 10239 10238 10237 10237 10237 10237 10238 10238 10240 10242 10243 10246 10248 10251 10254 10257 10260 10264 10268 10274 10279 10286 10291 10297 10303 10308 10313 10318 10323 10327 10332 10336 10340 10344 10349 10355 10360 10365 10371 10377 10383 10390 10397 10404 10410 10417 10424 10430 10435 10439 10442 10445 10448 10450 10452 10456 10459 10462 10463
10204 10205 10207 10210 10213 10215 10217 10219 10220 10223 10225 10228 10230 10232 10234 10236 10237 10238 10239 10239 10240 10240 10240 10240 10240 10239 10238 10238 10237 10237 10237 10237 10237 10238 10239 10241 10243 10245 10248 10250 10254 10257 10261 10265 10271 10276 10282 10287 10292 10297 10303 10308 10313 10317 10322 10326 10331 10335 10339 10344 10348 10353 10359 10364 10370 10376 10383 10390 10397 10404 10410 10416 10422 10426 10431 10434 10438 10440 10442 10444 10447 10451 10454 10455 10456
10200 10201 10204 10207 10210 10212 10214 10216 10218 10220 10223 10225 10228 10230 10232 10234 10235 10236 10237 10238 10238 10239 10239 10239 10239 10239 10239 10238 10238 10238 10238 10238 10239 10239 10241 10242 10245 10247 10250 10253 10256 10260 10264 10268 10273 10278 10283 10289 10293 10298 10303 10308 10313 10317 10322 10326 10330 10335 10340 10345 10349 10354 10360 10366 10372 10378 10385 10391 10397 10403 10408 10413 10418 10423 10427 10430 10432 10434 10436 10439 10442 10446 10447 10448 10449
10196 10198 10201 10204 10206 10209 10211 10213 10215 10218 10221 10223 10225 10228 10230 10232 10234 10235 10236 10237 10238 10238 10239 10239 10240 10240 10240 10239 10240 10240 10240 10240 10241 10242 10243 10245 10248 10251 10254 10257 10261 10264 10268 10271 10276 10280 10285 10290 10295 10300 10304 10308 10313 10318 10323 10327 10331 10335 10340 10346 10350 10355 10361 10366 10372 10378 10384 10390 10395 10401 10406 10410 10414 10418 10421 10424 10426 10427 10430 10433 10437 10439 10441 10441 10442
10193 10194 10197 10200 10203 10205 10208 10210 10213 10215 10218 10220 10223 10226 10228 10230 10232 10234 10235 10236 10237 10238 10239 10240 10240 10241 10241 10241 10242 10243 10243 10244 10245 10246 10247 10249 10252 10255 10258 10262 10265 10269 10272 10276 10279 10284 10288 10292 10296 10301 10305 10309 10314 10319 10323 10328 10333 10337 10342 10346 10351 10355 10360 10366 10372 10377 10383 10388 10393 10397 10401 10405 10408 10412 10415 10417 10419 10421 10424 10427 10430 10433 10435 10436 10437
10189 10191 10193 10196 10199 10202 10204 10207 10209 10212 10215 10218 10221 10224 10226 10229 10230 10232 10234 10235 10236 10238 10239 10240 10241 10241 10242 10243 10244 10245 10247 10248 10249 10250 10252 10254 10256 10259 10262 10265 10268 10272 10277 10281 10284 10287 10290 10294 10298 10302 10306 10311 10315 10319 10323 10328 10333 10338 10343 10348 10352 10357 10361 10367 10371 10376 10380 10384 10388 10392 10395 10399 10403 10406 10409 10411 10414 10417 10419 10422 10425 10428 10429 10430 10432
10185 10187 10190 10193 10195 10198 10201 10204 10206 10209 10212 10215 10218 10221 10224 10226 10228 10230 10232 10234 10236 10238 10239 10240 10241 10242 10243 10245 10246 10247 10249 10251 10253 10255 10256 10258 10260 10263 10265 10268 10271 10274 10278 10282 10286 10289 10292 10295 10298 10302 10307 10312 10316 10320 10324 10328 10333 10337 10341 10346 10351 10355 10360 10364 10368 10372 10376 10379 10383 10387 10391 10395 10398 10402 10405 10408 10411 10413 10415 10417 10419 10421 10423 10425 10427
10181 10183 10186 10189 10192 10195 10197 10200 10203 10206 10208 10211 10215 10218 10221 10224 10226 10228 10230 10232 10234 10237 10239 10240 10241 10242 10244 10246 10248 10249 10250 10253 10255 10258 10260 10262 10264 10266 10268 10271 10273 10276 10279 10283 10286 10290 10293 10297 10300 10303 10307 10312 10317 10322 10326 10330 10333 10337 10340 10344 10349 10354 10358 10362 10366 10369 10372 10376 10380 10384 10388 10391 10394 10398 10401 10403 10406 10407 10408 10410 10412 10415 10418 10421 10422
10177 10179 10182 10185 10188 10191 10194 10197 10200 10202 10205 10208 10211 10215 10218 10221 10223 10226 10228 10230 10233 10235 10238 10239 10240 10242 10243 10245 10248 10250 10251 10253 10255 10259 10262 10264 10266 10267 10269 10272 10275 10278 10281 10284 10287 10290 10293 10298 10302 10306 10309 10313 10317 10322 10326 10330 10334 10337 10340 10344 10348 10352 10356 10359 10362 10365 10368 10373 10377 10381 10384 10387 10390 10393 10395 10398 10399 10401 10403 10405 10408 10411 10413 10415 10417
10173 10175 10177 10180 10183 10186 10189 10193 10196 10199 10202 10204 10208 10211 10215 10218 10221 10223 10226 10228 10231 10233 10236 10238 10239 10241 10243 10245 10247 10249 10252 10254 10256 10258 10261 10264 10266 10268 10270 10272 10275 10278 10282 10285 10288 10291 10294 10298 10303 10307 10311 10314 10318 10322 10326 10330 10333 10337 10340 10343 10347 10350 10354 10357 10361 10364 10368 10372 10375 10378 10381 10383 10386 10388 10390 10392 10394 10396 10399 10401 10404 10406 10408 10410 10411
10168 10170 10173 10176 10179 10182 10185 10188 10192 10195 10198 10201 10204 10208 10211 10215 10218 10220 10223 10226 10229 10231 10234 10236 10238 10240 10242 10245 10247 10249 10251 10254 10256 10258 10261 10263 10266 10268 10270 10273 10276 10279 10282 10286 10289 10292 10295 10299 10304 10308 10311 10315 10318 10322 10326 10329 10333 10337 10340 10343 10346 10350 10353 10356 10360 10363 10366 10369 10371 10374 10376 10379 10381 10384 10386 10388 10391 10393 10395 10397 10399 10401 10403 10404 10405